This is the latest recevied weather packets stored in our database for station/object EA4BHK-10. If no packets are shown the sender has not sent any weather packets the latest 10 day(s).
| Time | Temp. | Humidity | Pressure | Rain* | Wind** | Luminosity | Snow |
|---|---|---|---|---|---|---|---|
| 1787960279 | 13.33° C | 44% | 1023.6 hPa | - | - | - | - |
| 1787959378 | 13.89° C | 44% | 1023.5 hPa | - | - | - | - |
| 1787958479 | 13.89° C | 42% | 1023.3 hPa | - | - | - | - |
| 1787957578 | 14.44° C | 42% | 1023.1 hPa | - | - | - | - |
| 1787956678 | 14.44° C | 42% | 1023 hPa | - | - | - | - |
| 1787955779 | 15° C | 40% | 1022.7 hPa | - | - | - | - |
| 1787954878 | 15.56° C | 41% | 1022.7 hPa | - | - | - | - |
| 1787953979 | 15.56° C | 40% | 1022.7 hPa | - | - | - | - |
| 1787953079 | 16.11° C | 38% | 1022.4 hPa | - | - | - | - |
| 1787952178 | 16.11° C | 38% | 1022.3 hPa | - | - | - | - |
| 1787951279 | 16.67° C | 36% | 1022.1 hPa | - | - | - | - |
| 1787950379 | 16.67° C | 34% | 1021.9 hPa | - | - | - | - |
| 1787949478 | 17.22° C | 33% | 1021.6 hPa | - | - | - | - |
| 1787948578 | 17.78° C | 32% | 1021.4 hPa | - | - | - | - |
| 1787947678 | 18.33° C | 31% | 1021 hPa | - | - | - | - |
| 1787946778 | 18.89° C | 31% | 1020.4 hPa | - | - | - | - |
| 1787945879 | 19.44° C | 30% | 1020 hPa | - | - | - | - |
| 1787944988 | 20° C | 28% | 1019.6 hPa | - | - | - | - |
| 1787944078 | 20.56° C | 27% | 1019.2 hPa | - | - | - | - |
| 1787943178 | 21.11° C | 27% | 1018.6 hPa | - | - | - | - |
| 1787942278 | 21.67° C | 25% | 1018.5 hPa | - | - | - | - |
| 1787941380 | 22.22° C | 23% | 1018.2 hPa | - | - | - | - |
| 1787940478 | 22.78° C | 21% | 1018 hPa | - | - | - | - |
| 1787939578 | 22.78° C | 19% | 1017.9 hPa | - | - | - | - |
| 1787938678 | 23.33° C | 18% | 1017.7 hPa | - | - | - | - |
* Rain since midnight (hover to see other rain measurements)
** Current wind speed in m/s (hover to see current wind gust speed)